KI5QWQ Weather Reports


time (UTC)temp
C
wind
direction
speed
KPH
gust
KPH
rain 1hr
cm
rain 24hr
cm
rain mn
cm
humidity
%
barometer
mb
20240614132629 -17 240 1.6 4.8 0.00 0.00 0.00 1017.9
20240614132128 -17 282 3.2 4.8 0.00 0.00 0.00 1018.1
20240614131624 -17 231 3.2 4.8 0.00 0.00 0.00 1018.1
20240614131124 -17 175 0.0 4.8 0.00 0.00 0.00 1017.9
20240614130620 -17 225 3.2 4.8 0.00 0.00 0.00 1018.0
20240614130119 -17 182 0.0 4.8 0.00 0.00 0.00 1017.9
20240614125616 -17 110 0.0 3.2 0.00 0.00 0.00 1017.8
20240614125116 -17 228 0.0 3.2 0.00 0.00 0.00 1017.9
20240614124606 -17 274 1.6 3.2 0.00 0.00 0.00 1017.6
20240614124104 -17 235 0.0 3.2 0.00 0.00 0.00 1017.5
20240614123605 -17 277 0.0 1.6 0.00 0.00 0.00 1017.4
20240614123103 -17 205 0.0 1.6 0.00 0.00 0.00 1017.4
20240614122601 -17 155 0.0 1.6 0.00 0.00 0.00 1017.4
20240614122100 -17 142 0.0 0.0 0.00 0.00 0.00 1017.5
20240614121557 -17 269 0.0 0.0 0.00 0.00 0.00 1018.0
20240614121056 -17 269 0.0 3.2 0.00 0.00 0.00 1017.8
20240614120554 -17 246 0.0 1.6 0.00 0.00 0.00 1017.9
20240614120054 -17 269 0.0 1.6 0.00 0.00 0.00 1018.0
20240614115554 -17 269 0.0 1.6 0.00 0.00 0.00 1018.0
20240614115053 -17 129 0.0 1.6 0.00 0.00 0.00 1017.9
20240614114551 -17 233 0.0 0.0 0.00 0.00 0.00 1018.0
20240614114051 -17 111 0.0 3.2 0.00 0.00 0.00 1017.9
20240614113549 -17 283 0.0 3.2 0.00 0.00 0.00 1017.9
20240614113048 -17 75 0.0 1.6 0.00 0.00 0.00 1017.8
20240614112546 -17 89 0.0 1.6 0.00 0.00 0.00 1017.6
20240614112046 -17 242 0.0 1.6 0.00 0.00 0.00 1017.6
20240614111542 -17 226 0.0 1.6 0.00 0.00 0.00 1017.5
20240614111040 -17 326 0.0 0.0 0.00 0.00 0.00 1017.6
20240614110540 -17 7 0.0 1.6 0.00 0.00 0.00 1017.8
20240614110038 -17 315 0.0 3.2 0.00 0.00 0.00 1017.4
20240614105535 -17 154 0.0 1.6 0.00 0.00 0.00 1017.2
20240614105034 -17 229 0.0 1.6 0.00 0.00 0.00 1017.2
20240614104530 -17 246 0.0 1.6 0.00 0.00 0.00 1017.1
20240614104030 -17 164 0.0 1.6 0.00 0.00 0.00 1017.2
20240614103529 -17 322 0.0 1.6 0.00 0.00 0.00 1017.0
20240614103029 -17 44 0.0 0.0 0.00 0.00 0.00 1016.8
20240614102527 -17 255 0.0 1.6 0.00 0.00 0.00 1016.8
20240614102026 -17 92 0.0 1.6 0.00 0.00 0.00 1016.8
20240614101523 -17 269 0.0 1.6 0.00 0.00 0.00 1016.5
20240614101023 -17 260 0.0 1.6 0.00 0.00 0.00 1016.6
20240614100523 -17 89 0.0 1.6 0.00 0.00 0.00 1016.5
20240614100022 -17 46 0.0 1.6 0.00 0.00 0.00 1016.5
20240614095521 -17 180 0.0 1.6 0.00 0.00 0.00 1016.3
20240614095020 -17 142 0.0 3.2 0.00 0.00 0.00 1016.4
20240614094518 -17 269 0.0 3.2 0.00 0.00 0.00 1016.3
20240614094018 -17 284 0.0 1.6 0.00 0.00 0.00 1016.5
20240614093516 -17 283 0.0 1.6 0.00 0.00 0.00 1016.2
20240614093014 -17 321 0.0 0.0 0.00 0.00 0.00 1016.4
20240614092512 -17 321 0.0 3.2 0.00 0.00 0.00 1016.3
20240614092011 -17 269 0.0 1.6 0.00 0.00 0.00 1016.3
20240614091508 -17 117 0.0 1.6 0.00 0.00 0.00 1016.1
20240614091008 -17 224 0.0 3.2 0.00 0.00 0.00 1016.0
20240614090507 -17 238 0.0 3.2 0.00 0.00 0.00 1016.1
20240614090006 -17 286 0.0 1.6 0.00 0.00 0.00 1016.2
20240614085500 -17 269 0.0 1.6 0.00 0.00 0.00 1016.3
20240614084958 -17 89 0.0 1.6 0.00 0.00 0.00 1015.9
20240614084457 -17 65 0.0 3.2 0.00 0.00 0.00 1016.1
20240614083956 -17 62 0.0 1.6 0.00 0.00 0.00 1016.0
20240614083455 -17 62 0.0 3.2 0.00 0.00 0.00 1015.9
20240614082953 -17 322 0.0 1.6 0.00 0.00 0.00 1016.0
20240614082452 -17 295 0.0 1.6 0.00 0.00 0.00 1016.1
20240614081950 -17 246 0.0 1.6 0.00 0.00 0.00 1016.2
20240614081448 -17 242 0.0 1.6 0.00 0.00 0.00 1016.2
20240614080948 -17 15 0.0 3.2 0.00 0.00 0.00 1016.1
20240614080446 -17 164 0.0 1.6 0.00 0.00 0.00 1016.1
20240614075946 -17 269 0.0 1.6 0.00 0.00 0.00 1016.1
20240614075445 -17 304 0.0 0.0 0.00 0.00 0.00 1016.0
20240614074945 -17 304 0.0 1.6 0.00 0.00 0.00 1016.0
20240614074443 -17 304 0.0 0.0 0.00 0.00 0.00 1016.1
20240614073941 -17 304 0.0 1.6 0.00 0.00 0.00 1016.1
20240614073441 -17 0 0.0 0.0 0.00 0.00 0.00 1016.0
20240614072939 -17 0 0.0 0.0 0.00 0.00 0.00 1016.3
20240614072438 -17 0 0.0 0.0 0.00 0.00 0.00 1016.2
20240614071937 -17 0 0.0 0.0 0.00 0.00 0.00 1016.2
20240614071436 -17 0 0.0 0.0 0.00 0.00 0.00 1016.2
20240614070935 -17 0 0.0 0.0 0.00 0.00 0.00 1016.2
20240614070432 -17 0 0.0 0.0 0.00 0.00 0.00 1016.2
20240614065933 -17 0 0.0 0.0 0.00 0.00 0.00 1016.2
20240614065432 -17 0 0.0 0.0 0.00 0.00 0.00 1016.2
20240614064929 -17 269 0.0 0.0 0.00 0.00 0.00 1016.1
20240614064428 -17 269 0.0 0.0 0.00 0.00 0.00 1016.1
20240614063927 -17 269 0.0 0.0 0.00 0.00 0.00 1016.2
20240614063427 -17 269 0.0 0.0 0.00 0.00 0.00 1016.2
20240614062926 -17 269 0.0 0.0 0.00 0.00 0.00 1016.1
20240614062425 -17 269 0.0 0.0 0.00 0.00 0.00 1016.2
20240614061925 -17 269 0.0 0.0 0.00 0.00 0.00 1016.3
20240614061423 -17 269 0.0 0.0 0.00 0.00 0.00 1016.4
20240614060923 -17 269 0.0 0.0 0.00 0.00 0.00 1016.4
20240614060421 -17 242 0.0 0.0 0.00 0.00 0.00 1016.3
20240614055919 -17 242 0.0 0.0 0.00 0.00 0.00 1016.3
20240614055418 -17 242 0.0 0.0 0.00 0.00 0.00 1016.5
20240614054917 -17 242 0.0 0.0 0.00 0.00 0.00 1016.4
20240614054417 -17 242 0.0 0.0 0.00 0.00 0.00 1016.4
20240614053916 -17 242 0.0 0.0 0.00 0.00 0.00 1016.5
20240614053414 -17 269 0.0 0.0 0.00 0.00 0.00 1016.5
20240614052914 -17 309 0.0 0.0 0.00 0.00 0.00 1016.4
20240614052412 -17 322 0.0 0.0 0.00 0.00 0.00 1016.3
20240614051911 -17 290 0.0 0.0 0.00 0.00 0.00 1016.3
20240614051410 -17 290 0.0 0.0 0.00 0.00 0.00 1016.2
20240614050908 -17 290 0.0 1.6 0.00 0.00 0.00 1016.4
20240614050408 -17 269 0.0 1.6 0.00 0.00 0.00 1016.5
20240614045906 -17 322 0.0 0.0 0.00 0.00 0.00 1016.4
20240614045405 -17 322 0.0 1.6 0.00 0.00 0.00 1016.5
20240614044903 -17 297 0.0 0.0 0.00 0.00 0.00 1016.4
20240614044402 -17 297 0.0 0.0 0.00 0.00 0.00 1016.5
20240614043900 -17 322 0.0 0.0 0.00 0.00 0.00 1016.2
20240614043359 -17 322 0.0 0.0 0.00 0.00 0.00 1016.3
20240614042858 -17 322 0.0 1.6 0.00 0.00 0.00 1016.3
20240614042357 -17 305 0.0 1.6 0.00 0.00 0.00 1016.4
20240614041856 -17 284 0.0 0.0 0.00 0.00 0.00 1016.3
20240614041352 -17 284 0.0 0.0 0.00 0.00 0.00 1016.3
20240614040851 -17 284 0.0 1.6 0.00 0.00 0.00 1016.2
20240614040350 -17 269 0.0 0.0 0.00 0.00 0.00 1016.2
20240614035848 -17 269 0.0 0.0 0.00 0.00 0.00 1016.3
20240614035345 -17 269 0.0 1.6 0.00 0.00 0.00 1016.3
20240614034845 -17 326 0.0 1.6 0.00 0.00 0.00 1016.4
20240614034343 -17 322 0.0 1.6 0.00 0.00 0.00 1016.1
20240614033842 -17 322 0.0 1.6 0.00 0.00 0.00 1016.0
20240614033341 -17 297 0.0 0.0 0.00 0.00 0.00 1015.9
20240614032839 -17 297 0.0 1.6 0.00 0.00 0.00 1016.0
20240614032338 -17 333 0.0 0.0 0.00 0.00 0.00 1015.8
20240614031837 -17 309 0.0 0.0 0.00 0.00 0.00 1015.7
20240614031336 -17 309 0.0 1.6 0.00 0.00 0.00 1015.8
20240614030834 -17 304 0.0 1.6 0.00 0.00 0.00 1015.6
20240614030332 -17 309 0.0 1.6 0.00 0.00 0.00 1015.5
20240614025831 -17 333 0.0 0.0 0.00 0.00 0.00 1015.4
20240614025329 -17 333 0.0 0.0 0.00 0.00 0.00 1015.3
20240614024828 -17 293 0.0 0.0 0.00 0.00 0.00 1015.4
20240614024327 -17 293 0.0 0.0 0.00 0.00 0.00 1015.3
20240614023826 -17 298 0.0 1.6 0.00 0.00 0.00 1015.2
20240614023325 -17 329 0.0 0.0 0.00 0.00 0.00 1015.1
20240614022824 -17 284 0.0 0.0 0.00 0.00 0.00 1015.0
20240614022322 -17 297 0.0 0.0 0.00 0.00 0.00 1014.9
20240614021822 -17 309 0.0 0.0 0.00 0.00 0.00 1014.8
20240614021322 -17 309 0.0 0.0 0.00 0.00 0.00 1014.7
20240614020820 -17 309 0.0 0.0 0.00 0.00 0.00 1014.9
20240614020318 -17 297 0.0 0.0 0.00 0.00 0.00 1014.9
20240614015816 -17 315 0.0 1.6 0.00 0.00 0.00 1015.0
20240614015315 -17 309 0.0 1.6 0.00 0.00 0.00 1014.8
20240614014814 -17 290 0.0 1.6 0.00 0.00 0.00 1014.8
20240614014309 -17 180 0.0 0.0 0.00 0.00 0.00 1014.8
20240614013809 -17 180 0.0 0.0 0.00 0.00 0.00 1014.7
20240614013308 -17 180 0.0 0.0 0.00 0.00 0.00 1014.6
20240614012807 -17 180 0.0 3.2 0.00 0.00 0.00 1014.6
20240614012306 -17 164 0.0 1.6 0.00 0.00 0.00 1014.8
20240614011803 -17 113 0.0 0.0 0.00 0.00 0.00 1014.7
20240614011301 -17 113 0.0 3.2 0.00 0.00 0.00 1014.8
20240614010801 -17 246 0.0 1.6 0.00 0.00 0.00 1014.5
20240614010300 -17 89 0.0 1.6 0.00 0.00 0.00 1014.6
20240614005800 -17 147 0.0 1.6 0.00 0.00 0.00 1014.6
20240614005258 -17 170 0.0 4.8 0.00 0.00 0.00 1014.5
20240614004757 -17 343 0.0 3.2 0.00 0.00 0.00 1014.7
20240614004255 -17 178 4.8 8.0 0.00 0.00 0.00 1014.5
20240614003753 -17 98 0.0 4.8 0.00 0.00 0.00 1014.7
20240614003253 -17 198 3.2 6.4 0.00 0.00 0.00 1014.7
20240614002752 -17 118 0.0 8.0 0.00 0.00 0.00 1014.5
20240614002250 -17 100 3.2 6.4 0.00 0.00 0.00 1014.6
20240614001749 -17 109 3.2 4.8 0.00 0.00 0.00 1014.6
20240614001248 -17 213 3.2 4.8 0.00 0.00 0.00 1014.5
20240614000746 -17 195 4.8 8.0 0.00 0.00 0.00 1014.5
20240614000245 -17 125 0.0 8.0 0.00 0.00 0.00 1014.7
20240613235745 -17 232 1.6 6.4 0.00 0.00 0.00 1014.6
20240613235243 -17 334 0.0 4.8 0.00 0.00 0.00 1014.8
20240613234743 -17 190 3.2 8.0 0.00 0.00 0.00 1014.6
20240613234242 -17 157 3.2 6.4 0.00 0.00 0.00 1014.5
20240613233741 -17 194 1.6 8.0 0.00 0.00 0.00 1014.6
20240613233239 -17 180 3.2 8.0 0.00 0.00 0.00 1014.7
20240613232738 -17 217 0.0 3.2 0.00 0.00 0.00 1014.6
20240613232236 -17 164 3.2 6.4 0.00 0.00 0.00 1014.8
20240613231735 -17 10 3.2 8.0 0.00 0.00 0.00 1014.6
20240613231232 -17 169 0.0 4.8 0.00 0.00 0.00 1014.6
20240613230731 -17 165 4.8 6.4 0.00 0.00 0.00 1014.8
20240613230230 -17 148 1.6 9.7 0.00 0.00 0.00 1014.7
20240613225727 -17 287 1.6 8.0 0.00 0.00 0.00 1014.9
20240613225225 -17 104 4.8 9.7 0.00 0.00 0.00 1014.9
20240613224719 -17 167 0.0 6.4 0.00 0.00 0.00 1014.7
20240613224212 -17 211 3.2 4.8 0.00 0.00 0.00 1014.8
20240613223712 -17 124 0.0 6.4 0.00 0.00 0.00 1014.8
20240613223211 -17 339 1.6 8.0 0.00 0.00 0.00 1014.8
20240613222709 -17 272 0.0 9.7 0.00 0.00 0.00 1014.9
20240613222209 -17 1 3.2 6.4 0.00 0.00 0.00 1015.1
20240613221709 -17 229 0.0 9.7 0.00 0.00 0.00 1015.0
20240613221206 -17 195 1.6 9.7 0.00 0.00 0.00 1015.1
20240613220706 -17 133 6.4 8.0 0.00 0.00 0.00 1015.0
20240613220204 -17 145 3.2 6.4 0.00 0.00 0.00 1015.0
20240613215702 -17 66 3.2 6.4 0.00 0.00 0.00 1015.0
20240613215159 -17 0 0.0 9.7 0.00 0.00 0.00 1015.1
20240613214659 -17 273 1.6 4.8 0.00 0.00 0.00 1015.3
20240613214158 -17 304 1.6 4.8 0.00 0.00 0.00 1015.2
20240613213655 -17 299 3.2 8.0 0.00 0.00 0.00 1015.2
20240613213155 -17 317 0.0 9.7 0.00 0.00 0.00 1015.3
20240613212654 -17 1 3.2 6.4 0.00 0.00 0.00 1015.3
20240613212153 -17 342 4.8 8.0 0.00 0.00 0.00 1015.4
20240613211652 -17 199 0.0 4.8 0.00 0.00 0.00 1015.4
20240613211150 -17 134 3.2 9.7 0.00 0.00 0.00 1015.5
20240613210649 -17 5 1.6 6.4 0.00 0.00 0.00 1015.6
20240613210149 -17 226 4.8 4.8 0.00 0.00 0.00 1015.7
20240613205647 -17 89 0.0 4.8 0.00 0.00 0.00 1015.6
20240613205145 -17 193 1.6 8.0 0.00 0.00 0.00 1015.6
20240613204642 -17 191 1.6 6.4 0.00 0.00 0.00 1015.6
20240613204141 -17 173 1.6 8.0 0.00 0.00 0.00 1015.9
20240613203640 -17 353 0.0 8.0 0.00 0.00 0.00 1015.7
20240613203140 -17 200 3.2 6.4 0.00 0.00 0.00 1015.7
20240613202639 -17 186 3.2 6.4 0.00 0.00 0.00 1015.7
20240613202138 -17 105 1.6 6.4 0.00 0.00 0.00 1015.8
20240613201636 -17 102 4.8 8.0 0.00 0.00 0.00 1015.8
20240613201134 -17 140 0.0 11.3 0.00 0.00 0.00 1016.0
20240613200633 -17 173 4.8 8.0 0.00 0.00 0.00 1016.1
20240613200132 -17 165 6.4 8.0 0.00 0.00 0.00 1016.0
20240613195630 -17 281 1.6 3.2 0.00 0.00 0.00 1016.2
20240613195129 -17 278 3.2 6.4 0.00 0.00 0.00 1016.2
20240613194627 -17 138 4.8 6.4 0.00 0.00 0.00 1016.0
20240613194126 -17 82 3.2 6.4 0.00 0.00 0.00 1016.0
20240613193623 -17 5 4.8 12.9 0.00 0.00 0.00 1016.2
20240613193122 -17 354 3.2 8.0 0.00 0.00 0.00 1016.1
20240613192621 -17 342 1.6 9.7 0.00 0.00 0.00 1016.2
20240613192120 -17 146 3.2 8.0 0.00 0.00 0.00 1016.4
20240613191618 -17 227 0.0 4.8 0.00 0.00 0.00 1016.3
20240613191118 -17 192 3.2 6.4 0.00 0.00 0.00 1016.4
20240613190618 -17 0 0.0 6.4 0.00 0.00 0.00 1016.2
20240613190117 -17 320 1.6 4.8 0.00 0.00 0.00 1016.5
20240613185617 -17 217 4.8 11.3 0.00 0.00 0.00 1016.5
20240613185116 -17 143 1.6 8.0 0.00 0.00 0.00 1016.5
20240613184615 -17 326 1.6 6.4 0.00 0.00 0.00 1016.6
20240613184114 -17 235 4.8 6.4 0.00 0.00 0.00 1016.6
20240613183612 -17 136 3.2 11.3 0.00 0.00 0.00 1016.8
20240613183111 -17 284 3.2 4.8 0.00 0.00 0.00 1016.7
20240613182607 -17 336 0.0 6.4 0.00 0.00 0.00 1016.9
20240613182106 -17 238 1.6 6.4 0.00 0.00 0.00 1017.0
20240613181603 -17 345 0.0 3.2 0.00 0.00 0.00 1016.8
20240613181102 -17 229 1.6 4.8 0.00 0.00 0.00 1016.9
20240613180603 -17 152 0.0 4.8 0.00 0.00 0.00 1017.1
20240613180100 -17 290 3.2 11.3 0.00 0.00 0.00 1017.1
20240613175559 -17 253 3.2 8.0 0.00 0.00 0.00 1017.3
20240613175057 -17 192 3.2 8.0 0.00 0.00 0.00 1017.3
20240613174557 -17 203 0.0 8.0 0.00 0.00 0.00 1017.3
20240613174055 -17 209 4.8 8.0 0.00 0.00 0.00 1017.2
20240613173554 -17 257 1.6 3.2 0.00 0.00 0.00 1017.3
20240613173053 -17 203 3.2 6.4 0.00 0.00 0.00 1017.3
20240613172552 -17 160 0.0 6.4 0.00 0.00 0.00 1017.5
20240613172051 -17 25 1.6 3.2 0.00 0.00 0.00 1017.4
20240613171549 -17 173 0.0 6.4 0.00 0.00 0.00 1017.6
20240613171048 -17 135 3.2 8.0 0.00 0.00 0.00 1017.5
20240613170546 -17 215 3.2 11.3 0.00 0.00 0.00 1017.5
20240613170046 -17 207 1.6 3.2 0.00 0.00 0.00 1017.6
20240613165544 -17 37 0.0 4.8 0.00 0.00 0.00 1017.5
20240613165043 -17 232 1.6 4.8 0.00 0.00 0.00 1017.5
20240613164542 -17 182 3.2 8.0 0.00 0.00 0.00 1017.4
20240613164042 -17 246 1.6 4.8 0.00 0.00 0.00 1017.5
20240613163538 -17 321 0.0 4.8 0.00 0.00 0.00 1017.4
20240613163038 -17 205 1.6 6.4 0.00 0.00 0.00 1017.5
20240613162531 -17 268 1.6 6.4 0.00 0.00 0.00 1017.6
20240613162030 -17 130 6.4 11.3 0.00 0.00 0.00 1017.3
20240613161529 -17 155 4.8 8.0 0.00 0.00 0.00 1017.3
20240613161029 -17 141 8.0 9.7 0.00 0.00 0.00 1017.4
20240613160525 -17 148 6.4 8.0 0.00 0.00 0.00 1017.6
20240613160023 -17 138 4.8 8.0 0.00 0.00 0.00 1017.4
20240613155522 -17 317 1.6 4.8 0.00 0.00 0.00 1017.5
20240613155021 -17 138 3.2 9.7 0.00 0.00 0.00 1017.6
20240613154519 -17 191 3.2 6.4 0.00 0.00 0.00 1017.5
20240613154016 -17 70 4.8 11.3 0.00 0.00 0.00 1017.5
20240613153515 -17 128 3.2 8.0 0.00 0.00 0.00 1017.5
20240613153014 -17 187 6.4 9.7 0.00 0.00 0.00 1017.8
20240613152512 -17 221 0.0 4.8 0.00 0.00 0.00 1017.5
20240613152011 -17 75 1.6 6.4 0.00 0.00 0.00 1017.8
20240613151508 -17 105 0.0 6.4 0.00 0.00 0.00 1017.8
20240613151006 -17 173 3.2 8.0 0.00 0.00 0.00 1017.9
20240613150505 -17 50 3.2 8.0 0.00 0.00 0.00 1018.0
20240613150005 -17 142 0.0 4.8 0.00 0.00 0.00 1018.0
20240613145504 -17 154 3.2 11.3 0.00 0.00 0.00 1017.9
20240613145002 -17 199 3.2 6.4 0.00 0.00 0.00 1018.0
20240613144500 -17 118 1.6 8.0 0.00 0.00 0.00 1017.8
20240613143959 -17 97 1.6 8.0 0.00 0.00 0.00 1018.0
20240613143458 -17 213 1.6 6.4 0.00 0.00 0.00 1018.1
20240613142958 -17 210 3.2 6.4 0.00 0.00 0.00 1018.1
20240613142455 -17 341 0.0 4.8 0.00 0.00 0.00 1017.9
20240613141955 -17 127 0.0 4.8 0.00 0.00 0.00 1018.1
20240613141453 -17 332 1.6 4.8 0.00 0.00 0.00 1017.9
20240613140951 -17 157 1.6 4.8 0.00 0.00 0.00 1017.8
20240613140450 -17 177 3.2 4.8 0.00 0.00 0.00 1017.8
20240613135950 -17 225 3.2 3.2 0.00 0.00 0.00 1017.8
20240613135448 -17 154 0.0 3.2 0.00 0.00 0.00 1017.6
20240613134947 -17 166 3.2 4.8 0.00 0.00 0.00 1017.5
20240613134442 -17 333 0.0 4.8 0.00 0.00 0.00 1017.8
20240613133941 -17 119 1.6 3.2 0.00 0.00 0.00 1017.6
20240613133440 -17 142 0.0 3.2 0.00 0.00 0.00 1017.5
20240613132939 -17 0 0.0 4.8 0.00 0.00 0.00 1017.4